This demonstration page uses our WeatherBlox Daily Observations layout. Learn more.

Left ArrowRight Arrow

Hourly Observations for July 8, 2021

Temp ( °F °C ) Dew Point ( °F °C ) Humidity (%) Winds ( mph kmh ) Pressure ( in mb ) Visibility ( mi km ) Precip ( " mm )
12:53 am 00:53 Clear 75 23.9 63 17.2 66 66 ENE 6 9 29.89 1012 10 16 0.00 0.00
2:53 am 02:53 Clear 73 22.8 64 17.8 74 74 Calm 29.88 1012 10 16 0.00 0.00
3:53 am 03:53 Clear 71 21.7 64 17.8 79 79 N 7 11 29.87 1012 10 16 0.00 0.00
4:53 am 04:53 Clear 70 21.1 63 17.2 79 79 NNW 5 7 29.88 1012 10 16 0.00 0.00
5:53 am 05:53 Clear 69 20.6 63 17.2 81 81 N 6 9 29.89 1012 10 16 0.00 0.00
6:53 am 06:53 Clear 68 20 63 17.2 84 84 N 5 7 29.91 1013 10 16 0.00 0.00
7:53 am 07:53 Sunny 72 22.2 64 17.8 76 76 Calm 29.91 1013 10 16 0.00 0.00
8:53 am 08:53 Sunny 77 25 64 17.8 64 64 E 3 6 29.92 1013 10 16 0.00 0.00
9:53 am 09:53 Sunny 80 26.7 63 17.2 56 56 VRB 3 6 29.93 1013 10 16 0.00 0.00
10:53 am 10:53 Sunny 84 28.9 63 17.2 49 49 Calm 29.92 1013 10 16 0.00 0.00
11:53 am 11:53 Mostly Sunny 85 29.4 62 16.7 46 46 N 7 11 29.91 1013 10 16 0.00 0.00
12:53 pm 12:53 Mostly Sunny 88 31.1 62 16.7 42 42 E 10 17 29.91 1013 10 16 0.00 0.00
1:53 pm 13:53 Sunny 90 32.2 62 16.7 39 39 ESE 6 9 29.89 1012 10 16 0.00 0.00
2:53 pm 14:53 Partly Cloudy 90 32.2 61 16.1 38 38 ESE 9 15 29.87 1012 10 16 0.00 0.00
3:53 pm 15:53 Mostly Cloudy 90 32.2 60 15.6 37 37 VRB 3 6 29.85 1011 10 16 0.00 0.00
4:53 pm 16:53 Mostly Sunny 91 32.8 58 14.4 33 33 ENE 9 15 29.83 1010 10 16 0.00 0.00
5:53 pm 17:53 Mostly Sunny 92 33.3 59 15 33 33 ENE 7 11 29.82 1010 10 16 0.00 0.00
6:53 pm 18:53 Partly Cloudy 91 32.8 58 14.4 33 33 ESE 9 15 29.81 1009 10 16 0.00 0.00
7:53 pm 19:53 Sunny 90 32.2 57 13.9 33 33 ESE 9 15 29.81 1009 10 16 0.00 0.00
8:53 pm 20:53 Sunny 87 30.6 58 14.4 37 37 E 12 19 29.82 1010 10 16 0.00 0.00
9:53 pm 21:53 Clear 84 28.9 61 16.1 46 46 ESE 8 13 29.84 1011 10 16 0.00 0.00
10:53 pm 22:53 Clear 81 27.2 61 16.1 51 51 ESE 7 11 29.87 1012 10 16 0.00 0.00
11:53 pm 23:53 Clear 80 26.7 61 16.1 52 52 ESE 9 15 29.89 1012 10 16 0.00 0.00

Powered by AerisWeather